STARLINK-1373 (45544 NORAD) Tracking and Keplerian Element Data

This shows tracking and keplerian element data for the satellite.

Feedback or suggestion? Click here.




ElementValue
Catalog45544
NameSTARLINK-1373
Epoch Orbit1242
Epoch Day190.16667824
Epoch Year2020
RAAN41.5883
Inclination52.994
Eccentricity0.0001852
Argument of Perigee83.8211
Mean Anonmoly247.9024
Mean Motion15.05572709
Decay Rate-6.276E-05
L11 45544U 20025P 20190.16667824 -.00006276 00000-0 -41201-3 0 9997
L22 45544 52.9940 41.5883 0001852 83.8211 247.9024 15.05572709 12429

Live tracking and technical data element details for STARLINK-1373 (NORAD 45544). STARLINK-1373 can be tracked NOW for your location showing map with azimuth and elevation plus other details from your city location.

Track the satellite on the map from your city or location and see movement details for azimuth, elevation, latitude, longitude, range, height, and movement on the map or in text.







IsCatalogInMostPopularTable: catalog: 45544, numindb: 14
Update: records affected: 1



GetName: 45544 STARLINK-1373

Hit Count: updated at: Fri, 10 Jul 2020 02:10:55 GMT